Home   Weather   Dayton   Past weeks
Flag for USA

Past Weather in Dayton, Indiana, USA — Yesterday and Last 2 Weeks

Now
22 °F

Light snow. Overcast.


Feels Like: 4 °F
Forecast: 13 / 5 °F
Wind: 28 mph from West

Location: Purdue University Airport

Current Time: Jan 18, 2020 at 8:44:29 pm

Latest Report: Jan 18, 2020 at 7:54 pm


Visibility: 5 mi

Pressure: 30.03 "Hg

Humidity: 78%

Dew Point: 16 °F

Location of DaytonLocation

Past Weather in Dayton — Graph

°F

Dayton Temperature Yesterday

Maximum temperature yesterday: 32 °F (at 10:54 pm)
Minimum temperature yesterday: 20 °F (at 12:54 am)
Average temperature yesterday: 26 °F

High & Low Weather Summary for the Past Weeks

 TemperatureHumidityPressure
High60 °F (Jan 11, 2:54 am)100% (Jan 10, 6:54 am)30.81 "Hg (Jan 10, 6:54 am)
Low20 °F (Jan 16, 9:54 pm)35% (Jan 9, 3:54 pm)29.68 "Hg (Jan 11, 4:10 am)
Average36 °F82%30.14 "Hg
* Reported Jan 3 6:54 pm — Jan 18 6:54 pm, Dayton. Weather by CustomWeather, © 2020

Note: Actual official high and low records may vary slightly from our data, if they occured in-between our weather recording intervals... More about our weather records

Dayton Weather History for the Previous 24 Hours

Scroll right to see more
 ConditionsComfort  
Time TempWeatherWind HumidityBarometerVisibility
6:54 pm
Sat, Jan 18
25 °FOvercast.22 mph81%29.99 "Hg10 mi
5:54 pm29 °FOvercast.23 mph82%29.96 "Hg10 mi
4:54 pm32 °FMostly cloudy.22 mph82%29.90 "Hg10 mi
3:54 pm37 °FMostly cloudy.20 mph86%29.85 "Hg10 mi
2:54 pm37 °FMostly cloudy.21 mph82%29.83 "Hg10 mi
2:04 pm37 °FMostly cloudy.25 mph86%29.81 "Hg10 mi
1:54 pm38 °FMostly cloudy.17 mph86%29.82 "Hg10 mi
12:54 pm39 °FLight rain. Fog.23 mph89%29.79 "Hg5 mi
12:10 pm41 °FMostly cloudy.24 mph93%29.76 "Hg8 mi
12:00 pm42 °FFog.23 mph92%29.75 "Hg4 mi
11:42 am45 °FLight rain. Fog.22 mph93%29.74 "Hg2 mi
10:54 am45 °FLight rain. Fog.13 mph93%29.75 "Hg5 mi
9:54 am42 °FLight rain. Fog.12 mph96%29.76 "Hg6 mi
8:54 am41 °FLight rain. Low clouds.8 mph93%29.79 "Hg9 mi
8:15 am39 °FRain. Fog.10 mph96%29.80 "Hg4 mi
7:54 am39 °FLight rain. Overcast.7 mph96%29.83 "Hg8 mi
6:54 am38 °FLight rain. Fog.8 mph97%29.87 "Hg6 mi
5:54 am37 °FRain. Fog.8 mph93%29.88 "Hg4 mi
5:20 am36 °FRain. Fog.10 mph97%29.88 "Hg3 mi
4:54 am35 °FLight rain. Fog.12 mph92%29.91 "Hg4 mi
4:10 am34 °FRain. Fog.10 mph92%29.96 "Hg4 mi
3:54 am34 °FRain. Fog.12 mph92%29.98 "Hg4 mi
3:26 am33 °FRain. Fog.12 mph92%30.00 "Hg4 mi
2:54 am33 °FLight rain. Fog.9 mph92%30.05 "Hg5 mi
2:17 am32 °FLight snow. Ice fog.14 mph88%30.06 "Hg6 mi
1:54 am32 °FLight freezing rain. Ice fog.16 mph88%30.10 "Hg6 mi
12:54 am32 °FLight freezing rain. Overcast.13 mph82%30.16 "Hg8 mi
12:18 am31 °FLight freezing rain. Overcast.12 mph82%30.19 "Hg9 mi
11:54 pm
Fri, Jan 17
31 °FLight snow. Overcast.9 mph79%30.22 "Hg10 mi
10:54 pm32 °FOvercast.16 mph66%30.28 "Hg10 mi
9:54 pm30 °FLight snow. Mostly cloudy.18 mph75%30.29 "Hg10 mi
8:54 pm30 °FLight snow. Overcast.15 mph72%30.37 "Hg4 mi
Weather by CustomWeather, © 2020

See weather overview

Advertising